QPF
0.05 0.07 0.08 0.10 0.09 0.06 0.06 0.05 0.06 0.09 0.08 0.08 0.08 0.08 0.07 0.07 0.08 0.08 0.08 0.09 0.09 0.09 0.12 0.13 0.13 0.13 0.09 0.04 0.03 0.02 0.03 0.03 0.04 0.06 0.05 0.05 0.06 0.05 0.05 0.06 0.06 0.04 0.03
0.04 0.06 0.11 0.11 0.07 0.06 0.06 0.06 0.07 0.09 0.09 0.10 0.13 0.14 0.13 0.09 0.08 0.07 0.08 0.10 0.08 0.09 0.09 0.09 0.08 0.07 0.05 0.03 0.02 0.03 0.03 0.04 0.04 0.05 0.06 0.05 0.06 0.05 0.04 0.05 0.06 0.05 0.04
0.04 0.07 0.09 0.08 0.07 0.07 0.07 0.09 0.12 0.12 0.13 0.15 0.15 0.11 0.09 0.08 0.07 0.08 0.08 0.08 0.07 0.08 0.09 0.08 0.06 0.05 0.05 0.04 0.04 0.05 0.05 0.04 0.04 0.05 0.07 0.06 0.05 0.05 0.04 0.04 0.04 0.04 0.04
0.03 0.05 0.07 0.09 0.10 0.10 0.11 0.13 0.15 0.17 0.18 0.16 0.13 0.10 0.08 0.08 0.08 0.09 0.09 0.08 0.07 0.06 0.06 0.05 0.05 0.06 0.06 0.06 0.07 0.07 0.05 0.05 0.04 0.04 0.04 0.06 0.05 0.06 0.06 0.05 0.04 0.03 0.03
0.02 0.03 0.04 0.07 0.11 0.14 0.18 0.18 0.19 0.24 0.20 0.15 0.11 0.10 0.09 0.12 0.12 0.10 0.09 0.07 0.06 0.05 0.04 0.04 0.03 0.04 0.06 0.06 0.06 0.07 0.06 0.05 0.05 0.04 0.04 0.04 0.05 0.04 0.04 0.04 0.04 0.04 0.03
0.02 0.03 0.04 0.05 0.07 0.13 0.20 0.20 0.18 0.19 0.16 0.13 0.10 0.10 0.10 0.12 0.11 0.09 0.09 0.08 0.05 0.04 0.03 0.03 0.03 0.03 0.04 0.05 0.06 0.08 0.07 0.05 0.05 0.05 0.05 0.05 0.05 0.04 0.04 0.03 0.03 0.04 0.05
0.03 0.04 0.06 0.06 0.07 0.13 0.25 0.25 0.15 0.09 0.08 0.08 0.09 0.11 0.09 0.11 0.09 0.06 0.07 0.05 0.03 0.02 0.02 0.02 0.03 0.04 0.05 0.06 0.07 0.09 0.09 0.08 0.06 0.05 0.05 0.05 0.05 0.05 0.06 0.06 0.04 0.03 0.03
0.04 0.04 0.05 0.06 0.09 0.11 0.11 0.10 0.08 0.05 0.06 0.07 0.07 0.07 0.06 0.09 0.05 0.03 0.03 0.02 0.01 0.01 0.02 0.03 0.03 0.03 0.06 0.08 0.08 0.07 0.07 0.07 0.06 0.05 0.04 0.04 0.03 0.04 0.04 0.04 0.04 0.03 0.03
0.03 0.03 0.03 0.04 0.08 0.11 0.06 0.04 0.03 0.06 0.07 0.07 0.05 0.06 0.06 0.06 0.04 0.03 0.03 0.01 0.01 0.01 0.02 0.04 0.03 0.03 0.05 0.06 0.06 0.06 0.06 0.06 0.05 0.05 0.04 0.05 0.04 0.05 0.04 0.04 0.04 0.04 0.04
0.01 0.02 0.02 0.02 0.05 0.07 0.08 0.06 0.04 0.06 0.05 0.05 0.04 0.05 0.06 0.05 0.02 0.02 0.03 0.01 0.01 0.02 0.02 0.03 0.03 0.03 0.04 0.04 0.05 0.06 0.07 0.06 0.05 0.06 0.07 0.07 0.07 0.06 0.05 0.05 0.05 0.04 0.04
0.01 0.01 0.02 0.02 0.02 0.05 0.05 0.06 0.05 0.04 0.03 0.03 0.03 0.04 0.05 0.03 0.02 0.02 0.02 0.01 0.01 0.01 0.02 0.02 0.03 0.04 0.04 0.03 0.03 0.05 0.06 0.06 0.06 0.07 0.07 0.07 0.06 0.05 0.04 0.04 0.04 0.04 0.04
0.02 0.02 0.02 0.02 0.02 0.03 0.04 0.06 0.05 0.04 0.03 0.03 0.04 0.06 0.05 0.02 0.02 0.02 0.02 0.01 0.01 0.02 0.03 0.04 0.04 0.04 0.03 0.03 0.03 0.03 0.03 0.04 0.06 0.06 0.05 0.04 0.04 0.03 0.02 0.02 0.02 0.02 0.02
0.02 0.03 0.02 0.01 0.01 0.02 0.02 0.04 0.03 0.04 0.03 0.02 0.04 0.04 0.03 0.03 0.03 0.03 0.03 0.02 0.02 0.03 0.04 0.05 0.04 0.03 0.03 0.02 0.02 0.02 0.02 0.03 0.03 0.04 0.04 0.03 0.02 0.02 0.02 0.02 0.02 0.02 0.03
0.03 0.05 0.05 0.02 0.01 0.01 0.02 0.03 0.03 0.02 0.01 0.02 0.02 0.01 0.02 0.02 0.03 0.03 0.02 0.03 0.03 0.03 0.03 0.03 0.02 0.01 0.01 0.01 0.02 0.02 0.02 0.03 0.03 0.03 0.02 0.02 0.02 0.02 0.02 0.02 0.02 0.03 0.04
0.03 0.05 0.03 0.02 0.01 0.01 0.02 0.02 0.01 0.01 0.01 0.01 0.01 0.01 0.01 0.01 0.02 0.02 0.03 0.03 0.03 0.02 0.02 0.02 0.02 0.02 0.02 0.02 0.02 0.02 0.03 0.03 0.04 0.04 0.03 0.04 0.04 0.04 0.04 0.04 0.04 0.05 0.06
0.03 0.06 0.03 0.01 0.01 0.01 0.01 0.02 0.01 0.01 0.00 0.00 0.01 0.01 0.02 0.01 0.01 0.01 0.02 0.02 0.02 0.03 0.03 0.02 0.02 0.02 0.02 0.02 0.03 0.04 0.04 0.04 0.04 0.04 0.05 0.05 0.05 0.05 0.05 0.05 0.05 0.07 0.08
0.01 0.02 0.02 0.02 0.01 0.01 0.01 0.03 0.01 0.01 0.01 0.01 0.01 0.02 0.03 0.02 0.02 0.01 0.01 0.02 0.02 0.02 0.02 0.02 0.02 0.02 0.02 0.03 0.03 0.04 0.04 0.04 0.03 0.03 0.03 0.03 0.03 0.04 0.05 0.05 0.05 0.05 0.06
0.01 0.01 0.01 0.03 0.02 0.02 0.02 0.03 0.02 0.01 0.01 0.01 0.01 0.01 0.02 0.02 0.02 0.01 0.01 0.01 0.01 0.01 0.02 0.02 0.02 0.02 0.02 0.03 0.03 0.04 0.03 0.03 0.03 0.03 0.03 0.02 0.02 0.03 0.04 0.04 0.04 0.04 0.03
0.00 0.00 0.01 0.02 0.01 0.02 0.03 0.04 0.03 0.04 0.03 0.01 0.01 0.01 0.01 0.02 0.03 0.02 0.02 0.02 0.02 0.01 0.02 0.02 0.02 0.02 0.02 0.03 0.03 0.03 0.03 0.03 0.03 0.03 0.02 0.02 0.01 0.02 0.02 0.02 0.02 0.02 0.02
0.00 0.00 0.01 0.01 0.01 0.01 0.02 0.03 0.04 0.04 0.04 0.02 0.01 0.01 0.01 0.02 0.03 0.02 0.02 0.02 0.02 0.02 0.02 0.02 0.02 0.03 0.03 0.04 0.03 0.02 0.02 0.02 0.03 0.03 0.02 0.02 0.02 0.02 0.02 0.02 0.02 0.02 0.02
0.00 0.00 0.00 0.01 0.01 0.01 0.01 0.02 0.03 0.02 0.01 0.02 0.01 0.01 0.01 0.01 0.01 0.01 0.01 0.01 0.01 0.02 0.02 0.02 0.03 0.04 0.04 0.04 0.03 0.02 0.01 0.01 0.02 0.02 0.02 0.01 0.01 0.01 0.01 0.01 0.01 0.02 0.02
0.01 0.00 0.01 0.01 0.01 0.01 0.01 0.01 0.01 0.01 0.00 0.00 0.01 0.01 0.01 0.00 0.01 0.01 0.01 0.01 0.02 0.02 0.02 0.02 0.02 0.02 0.02 0.02 0.02 0.02 0.01 0.01 0.01 0.01 0.01 0.01 0.01 0.01 0.01 0.01 0.01 0.02 0.01
0.01 0.01 0.01 0.01 0.01 0.01 0.01 0.01 0.01 0.01 0.01 0.00 0.00 0.00 0.00 0.01 0.01 0.01 0.01 0.01 0.01 0.02 0.02 0.02 0.02 0.02 0.02 0.01 0.01 0.01 0.01 0.01 0.01 0.01 0.01 0.02 0.03 0.02 0.01 0.01 0.02 0.02 0.02
0.00 0.01 0.01 0.01 0.01 0.01 0.01 0.01 0.01 0.01 0.01 0.00 0.00 0.00 0.01 0.01 0.01 0.00 0.01 0.01 0.01 0.01 0.01 0.02 0.02 0.01 0.01 0.01 0.01 0.01 0.01 0.01 0.01 0.01 0.02 0.04 0.05 0.04 0.02 0.02 0.02 0.02 0.02
0.00 0.00 0.01 0.02 0.02 0.01 0.01 0.01 0.01 0.01 0.01 0.00 0.00 0.01 0.01 0.01 0.00 0.00 0.00 0.01 0.01 0.01 0.01 0.01 0.02 0.01 0.01 0.01 0.01 0.01 0.01 0.01 0.01 0.02 0.02 0.03 0.05 0.04 0.03 0.03 0.03 0.02 0.03
0.00 0.00 0.01 0.03 0.02 0.01 0.01 0.01 0.01 0.01 0.00 0.00 0.00 0.01 0.01 0.01 0.00 0.01 0.01 0.01 0.01 0.01 0.01 0.01 0.01 0.01 0.01 0.01 0.01 0.01 0.01 0.01 0.01 0.01 0.01 0.01 0.02 0.03 0.03 0.04 0.04 0.04 0.03
MSLP
1015.70 1015.41 1015.01 1014.50 1013.95 1013.42 1012.98 1012.70 1012.64 1012.79 1013.13 1013.60 1014.14 1014.69 1015.17 1015.57 1015.88 1016.11 1016.29 1016.45 1016.64 1016.87 1017.13 1017.43 1017.75 1018.07 1018.38 1018.67 1018.93 1019.18 1019.41 1019.64 1019.85 1020.04 1020.18 1020.26 1020.25 1020.13 1019.92 1019.61 1019.24 1018.83 1018.42
1015.96 1015.60 1015.11 1014.51 1013.87 1013.26 1012.77 1012.48 1012.45 1012.67 1013.11 1013.69 1014.35 1014.99 1015.54 1015.98 1016.29 1016.50 1016.66 1016.79 1016.95 1017.17 1017.43 1017.74 1018.07 1018.39 1018.68 1018.93 1019.15 1019.34 1019.52 1019.71 1019.91 1020.11 1020.29 1020.42 1020.48 1020.42 1020.25 1019.97 1019.59 1019.14 1018.68
1016.12 1015.69 1015.14 1014.48 1013.78 1013.14 1012.65 1012.38 1012.40 1012.70 1013.23 1013.92 1014.66 1015.38 1016.00 1016.46 1016.78 1016.98 1017.10 1017.21 1017.35 1017.55 1017.81 1018.12 1018.44 1018.75 1019.01 1019.22 1019.38 1019.51 1019.64 1019.80 1019.98 1020.19 1020.40 1020.59 1020.71 1020.72 1020.59 1020.33 1019.96 1019.49 1018.97
1016.19 1015.72 1015.13 1014.46 1013.76 1013.13 1012.67 1012.45 1012.53 1012.89 1013.50 1014.25 1015.07 1015.83 1016.48 1016.96 1017.28 1017.47 1017.58 1017.67 1017.80 1017.99 1018.25 1018.55 1018.86 1019.14 1019.37 1019.53 1019.64 1019.72 1019.80 1019.92 1020.08 1020.29 1020.53 1020.75 1020.92 1020.97 1020.89 1020.65 1020.28 1019.79 1019.24
1016.21 1015.74 1015.17 1014.52 1013.86 1013.28 1012.87 1012.70 1012.83 1013.24 1013.89 1014.67 1015.50 1016.28 1016.94 1017.42 1017.74 1017.92 1018.03 1018.13 1018.26 1018.45 1018.70 1019.00 1019.29 1019.55 1019.75 1019.87 1019.93 1019.96 1019.99 1020.07 1020.21 1020.41 1020.65 1020.88 1021.07 1021.15 1021.08 1020.86 1020.48 1019.99 1019.42
1016.26 1015.82 1015.30 1014.72 1014.13 1013.62 1013.27 1013.15 1013.31 1013.73 1014.36 1015.13 1015.93 1016.69 1017.32 1017.79 1018.10 1018.29 1018.42 1018.53 1018.68 1018.88 1019.13 1019.42 1019.70 1019.93 1020.09 1020.17 1020.19 1020.18 1020.18 1020.22 1020.33 1020.50 1020.72 1020.95 1021.12 1021.20 1021.13 1020.91 1020.53 1020.04 1019.47
1016.37 1016.00 1015.57 1015.08 1014.59 1014.16 1013.87 1013.77 1013.92 1014.31 1014.88 1015.58 1016.32 1017.01 1017.60 1018.05 1018.36 1018.57 1018.72 1018.85 1019.02 1019.23 1019.49 1019.76 1020.01 1020.22 1020.34 1020.39 1020.38 1020.34 1020.31 1020.32 1020.40 1020.54 1020.72 1020.91 1021.05 1021.10 1021.02 1020.79 1020.42 1019.94 1019.38
1016.57 1016.30 1015.97 1015.59 1015.20 1014.84 1014.59 1014.51 1014.62 1014.94 1015.42 1016.02 1016.66 1017.27 1017.80 1018.22 1018.53 1018.75 1018.93 1019.09 1019.28 1019.49 1019.74 1019.99 1020.21 1020.37 1020.46 1020.48 1020.44 1020.38 1020.33 1020.32 1020.37 1020.48 1020.63 1020.77 1020.87 1020.88 1020.76 1020.52 1020.16 1019.70 1019.18
1016.84 1016.67 1016.46 1016.19 1015.89 1015.61 1015.39 1015.29 1015.36 1015.59 1015.96 1016.44 1016.97 1017.48 1017.95 1018.33 1018.64 1018.87 1019.07 1019.26 1019.45 1019.66 1019.87 1020.08 1020.25 1020.37 1020.42 1020.41 1020.36 1020.29 1020.23 1020.21 1020.25 1020.33 1020.43 1020.53 1020.58 1020.55 1020.41 1020.16 1019.81 1019.39 1018.92
1017.12 1017.06 1016.96 1016.79 1016.58 1016.36 1016.17 1016.06 1016.08 1016.22 1016.49 1016.85 1017.27 1017.70 1018.10 1018.45 1018.74 1018.98 1019.19 1019.37 1019.56 1019.74 1019.91 1020.06 1020.17 1020.23 1020.24 1020.20 1020.14 1020.07 1020.02 1020.01 1020.04 1020.10 1020.17 1020.22 1020.23 1020.16 1020.00 1019.75 1019.42 1019.04 1018.64
1017.36 1017.38 1017.37 1017.29 1017.16 1017.00 1016.85 1016.74 1016.73 1016.81 1017.00 1017.27 1017.59 1017.94 1018.29 1018.60 1018.88 1019.11 1019.31 1019.48 1019.63 1019.76 1019.87 1019.94 1019.98 1019.99 1019.95 1019.90 1019.83 1019.77 1019.74 1019.74 1019.77 1019.82 1019.87 1019.89 1019.85 1019.75 1019.57 1019.32 1019.02 1018.69 1018.35
1017.47 1017.56 1017.62 1017.61 1017.56 1017.46 1017.36 1017.28 1017.26 1017.32 1017.46 1017.67 1017.93 1018.23 1018.52 1018.80 1019.05 1019.26 1019.43 1019.57 1019.67 1019.74 1019.78 1019.78 1019.76 1019.70 1019.63 1019.55 1019.49 1019.44 1019.43 1019.45 1019.49 1019.53 1019.56 1019.55 1019.48 1019.35 1019.15 1018.90 1018.63 1018.34 1018.06
1017.43 1017.56 1017.65 1017.71 1017.72 1017.69 1017.66 1017.63 1017.65 1017.72 1017.85 1018.04 1018.27 1018.52 1018.78 1019.02 1019.24 1019.41 1019.55 1019.64 1019.69 1019.70 1019.67 1019.60 1019.52 1019.42 1019.32 1019.23 1019.17 1019.14 1019.14 1019.17 1019.21 1019.24 1019.25 1019.20 1019.10 1018.93 1018.72 1018.47 1018.21 1017.97 1017.74
1017.23 1017.36 1017.47 1017.57 1017.64 1017.68 1017.72 1017.78 1017.85 1017.97 1018.13 1018.32 1018.54 1018.77 1018.99 1019.20 1019.38 1019.52 1019.61 1019.65 1019.65 1019.61 1019.52 1019.41 1019.29 1019.16 1019.05 1018.95 1018.90 1018.87 1018.88 1018.91 1018.94 1018.94 1018.91 1018.82 1018.68 1018.48 1018.25 1018.00 1017.75 1017.53 1017.34
1016.89 1016.99 1017.11 1017.22 1017.34 1017.46 1017.58 1017.72 1017.87 1018.05 1018.25 1018.47 1018.69 1018.90 1019.10 1019.27 1019.41 1019.50 1019.55 1019.56 1019.52 1019.44 1019.33 1019.20 1019.06 1018.92 1018.80 1018.71 1018.65 1018.63 1018.63 1018.64 1018.63 1018.60 1018.52 1018.39 1018.20 1017.97 1017.71 1017.45 1017.21 1017.00 1016.85
1016.45 1016.52 1016.61 1016.74 1016.89 1017.06 1017.26 1017.48 1017.71 1017.96 1018.20 1018.44 1018.66 1018.87 1019.03 1019.17 1019.27 1019.32 1019.34 1019.32 1019.27 1019.18 1019.07 1018.94 1018.81 1018.68 1018.56 1018.47 1018.41 1018.36 1018.34 1018.31 1018.26 1018.17 1018.04 1017.86 1017.63 1017.36 1017.08 1016.81 1016.58 1016.39 1016.26
1015.99 1016.01 1016.07 1016.19 1016.35 1016.57 1016.82 1017.10 1017.40 1017.70 1017.98 1018.23 1018.45 1018.64 1018.77 1018.87 1018.93 1018.96 1018.96 1018.93 1018.88 1018.80 1018.71 1018.61 1018.49 1018.38 1018.27 1018.18 1018.10 1018.02 1017.96 1017.88 1017.78 1017.64 1017.46 1017.23 1016.96 1016.67 1016.38 1016.11 1015.88 1015.70 1015.58
1015.57 1015.54 1015.56 1015.66 1015.82 1016.05 1016.33 1016.65 1016.98 1017.31 1017.61 1017.86 1018.07 1018.22 1018.33 1018.39 1018.43 1018.43 1018.42 1018.40 1018.36 1018.31 1018.24 1018.17 1018.08 1017.98 1017.88 1017.78 1017.67 1017.57 1017.45 1017.32 1017.16 1016.98 1016.75 1016.50 1016.22 1015.92 1015.64 1015.37 1015.15 1014.99 1014.88
1015.23 1015.16 1015.15 1015.21 1015.35 1015.58 1015.86 1016.18 1016.52 1016.85 1017.14 1017.38 1017.56 1017.69 1017.76 1017.79 1017.80 1017.79 1017.77 1017.76 1017.74 1017.71 1017.68 1017.63 1017.56 1017.47 1017.37 1017.25 1017.11 1016.97 1016.80 1016.63 1016.43 1016.21 1015.97 1015.71 1015.44 1015.17 1014.90 1014.66 1014.45 1014.29 1014.18
1015.00 1014.90 1014.86 1014.89 1015.00 1015.20 1015.46 1015.76 1016.08 1016.39 1016.65 1016.86 1017.02 1017.11 1017.15 1017.15 1017.14 1017.11 1017.09 1017.08 1017.07 1017.06 1017.04 1017.00 1016.94 1016.85 1016.73 1016.58 1016.42 1016.23 1016.04 1015.83 1015.62 1015.39 1015.16 1014.92 1014.68 1014.44 1014.21 1014.00 1013.82 1013.66 1013.53
1014.87 1014.76 1014.70 1014.71 1014.79 1014.95 1015.17 1015.44 1015.71 1015.98 1016.21 1016.38 1016.50 1016.56 1016.57 1016.54 1016.51 1016.47 1016.43 1016.41 1016.40 1016.38 1016.35 1016.31 1016.23 1016.12 1015.98 1015.81 1015.61 1015.41 1015.19 1014.98 1014.77 1014.57 1014.37 1014.17 1013.98 1013.79 1013.61 1013.43 1013.26 1013.09 1012.94
1014.83 1014.74 1014.67 1014.66 1014.71 1014.83 1015.01 1015.22 1015.45 1015.67 1015.85 1015.99 1016.07 1016.09 1016.08 1016.03 1015.97 1015.91 1015.85 1015.80 1015.76 1015.72 1015.66 1015.58 1015.47 1015.33 1015.16 1014.96 1014.75 1014.54 1014.33 1014.13 1013.95 1013.79 1013.64 1013.50 1013.37 1013.23 1013.09 1012.94 1012.77 1012.59 1012.40
1014.85 1014.79 1014.73 1014.72 1014.75 1014.83 1014.96 1015.12 1015.30 1015.46 1015.60 1015.70 1015.75 1015.75 1015.71 1015.64 1015.55 1015.46 1015.37 1015.28 1015.19 1015.09 1014.98 1014.86 1014.70 1014.52 1014.32 1014.11 1013.89 1013.69 1013.50 1013.33 1013.20 1013.09 1013.00 1012.92 1012.85 1012.76 1012.65 1012.51 1012.34 1012.13 1011.89
1014.90 1014.88 1014.85 1014.84 1014.86 1014.91 1015.00 1015.11 1015.24 1015.36 1015.45 1015.51 1015.53 1015.51 1015.45 1015.36 1015.24 1015.11 1014.98 1014.83 1014.68 1014.52 1014.35 1014.16 1013.96 1013.74 1013.52 1013.30 1013.09 1012.91 1012.76 1012.64 1012.56 1012.50 1012.47 1012.44 1012.40 1012.34 1012.25 1012.11 1011.92 1011.69 1011.41
1014.95 1014.98 1014.98 1014.98 1014.99 1015.03 1015.08 1015.15 1015.23 1015.31 1015.37 1015.40 1015.40 1015.36 1015.28 1015.16 1015.02 1014.85 1014.67 1014.46 1014.25 1014.02 1013.78 1013.53 1013.28 1013.04 1012.80 1012.59 1012.40 1012.25 1012.14 1012.07 1012.04 1012.03 1012.04 1012.04 1012.02 1011.97 1011.87 1011.72 1011.52 1011.25 1010.94
1014.97 1015.04 1015.08 1015.10 1015.11 1015.13 1015.15 1015.19 1015.23 1015.27 1015.30 1015.31 1015.29 1015.24 1015.15 1015.02 1014.85 1014.65 1014.42 1014.16 1013.88 1013.59 1013.29 1013.00 1012.71 1012.45 1012.21 1012.01 1011.85 1011.74 1011.67 1011.64 1011.64 1011.66 1011.69 1011.69 1011.67 1011.61 1011.50 1011.32 1011.10 1010.81 1010.49
Thickness
5715 5716 5717 5717 5716 5714 5711 5709 5707 5705 5702 5699 5696 5693 5692 5692 5692 5691 5691 5690 5689 5688 5686 5686 5684 5682 5681 5680 5680 5678 5677 5677 5677 5676 5676 5678 5679 5679 5680 5680 5679 5679 5678
5711 5711 5712 5712 5711 5709 5707 5705 5703 5702 5698 5695 5693 5690 5689 5687 5687 5686 5686 5686 5685 5683 5682 5681 5680 5678 5676 5674 5674 5673 5672 5671 5671 5670 5668 5667 5669 5672 5675 5675 5674 5674 5673
5706 5706 5706 5705 5705 5704 5702 5701 5699 5697 5694 5691 5688 5686 5683 5682 5681 5681 5681 5682 5680 5678 5677 5676 5675 5674 5672 5670 5669 5669 5667 5665 5664 5665 5663 5661 5661 5663 5667 5668 5668 5668 5668
5704 5703 5702 5700 5700 5699 5698 5696 5694 5691 5689 5686 5683 5681 5679 5677 5677 5676 5676 5676 5674 5673 5672 5671 5670 5669 5667 5666 5666 5665 5663 5661 5660 5659 5659 5660 5659 5656 5658 5660 5662 5662 5662
5700 5699 5698 5697 5697 5696 5694 5691 5689 5687 5685 5683 5681 5679 5675 5673 5672 5672 5671 5670 5669 5668 5668 5667 5666 5664 5663 5662 5661 5660 5659 5657 5657 5655 5654 5653 5652 5652 5651 5652 5653 5654 5656
5696 5695 5695 5694 5692 5692 5690 5688 5685 5683 5681 5680 5678 5676 5672 5669 5668 5667 5666 5665 5664 5664 5663 5663 5662 5660 5659 5657 5656 5655 5654 5653 5653 5652 5650 5649 5648 5647 5646 5645 5646 5646 5648
5692 5690 5690 5689 5688 5687 5686 5685 5681 5679 5677 5675 5674 5672 5669 5667 5665 5664 5662 5661 5660 5659 5659 5658 5657 5656 5655 5653 5652 5650 5649 5648 5648 5647 5646 5645 5644 5643 5642 5640 5639 5638 5640
5688 5687 5686 5685 5684 5683 5682 5680 5677 5675 5674 5672 5670 5669 5667 5664 5663 5661 5660 5658 5657 5656 5656 5654 5653 5651 5650 5649 5647 5645 5645 5644 5643 5642 5641 5639 5639 5638 5637 5635 5633 5631 5631
5686 5685 5684 5683 5682 5680 5678 5676 5674 5672 5670 5669 5667 5666 5664 5662 5661 5659 5657 5656 5654 5653 5652 5650 5648 5647 5645 5644 5642 5641 5640 5639 5639 5637 5636 5634 5633 5632 5631 5629 5628 5625 5624
5682 5682 5681 5680 5679 5677 5676 5674 5671 5669 5667 5666 5665 5663 5661 5660 5658 5656 5655 5652 5651 5649 5647 5645 5644 5642 5640 5639 5637 5636 5636 5635 5634 5633 5630 5628 5627 5626 5624 5623 5621 5620 5618
5679 5679 5678 5677 5676 5674 5673 5672 5669 5667 5665 5663 5662 5660 5658 5656 5654 5652 5651 5649 5647 5645 5643 5641 5639 5638 5636 5634 5633 5631 5631 5630 5629 5627 5626 5624 5623 5621 5619 5618 5616 5614 5612
5677 5676 5675 5674 5672 5671 5671 5669 5667 5664 5662 5660 5659 5657 5654 5653 5651 5649 5648 5646 5643 5641 5639 5637 5635 5633 5631 5630 5628 5627 5626 5625 5623 5622 5621 5620 5619 5616 5615 5613 5612 5610 5608
5675 5673 5671 5670 5669 5668 5668 5667 5664 5662 5660 5658 5655 5653 5651 5649 5647 5645 5644 5642 5639 5636 5634 5632 5630 5629 5627 5626 5624 5623 5621 5620 5619 5618 5616 5615 5614 5612 5610 5609 5608 5606 5604
5672 5670 5668 5667 5666 5665 5664 5664 5662 5660 5658 5656 5653 5650 5648 5645 5643 5641 5638 5636 5634 5631 5629 5627 5626 5624 5623 5622 5620 5619 5617 5616 5615 5614 5612 5611 5610 5609 5607 5606 5604 5601 5598
5669 5667 5665 5664 5663 5662 5661 5661 5659 5658 5655 5652 5650 5647 5644 5642 5639 5636 5633 5630 5628 5627 5624 5623 5622 5621 5619 5618 5617 5615 5614 5612 5611 5609 5608 5607 5607 5606 5604 5602 5600 5597 5594
5667 5665 5663 5662 5661 5660 5659 5658 5657 5655 5653 5649 5646 5644 5641 5638 5635 5632 5629 5627 5624 5622 5620 5618 5617 5616 5616 5615 5613 5612 5610 5609 5607 5606 5604 5603 5602 5601 5599 5598 5596 5593 5590
5664 5663 5661 5660 5659 5658 5657 5655 5654 5652 5650 5647 5644 5641 5638 5635 5632 5630 5627 5623 5621 5618 5616 5614 5612 5611 5611 5610 5609 5609 5607 5605 5604 5602 5600 5600 5599 5597 5594 5592 5590 5587 5585
5663 5661 5660 5659 5657 5656 5655 5653 5651 5649 5646 5643 5641 5638 5635 5633 5630 5627 5623 5620 5617 5614 5612 5610 5609 5608 5607 5606 5606 5605 5603 5602 5600 5599 5597 5594 5593 5592 5589 5587 5585 5582 5580
5662 5660 5659 5657 5655 5654 5652 5650 5648 5646 5643 5641 5638 5636 5633 5630 5627 5624 5620 5617 5614 5611 5609 5607 5606 5605 5604 5603 5602 5600 5599 5597 5595 5594 5592 5590 5588 5586 5584 5582 5579 5577 5575
5659 5658 5657 5655 5652 5652 5650 5647 5645 5642 5640 5638 5636 5634 5631 5628 5625 5621 5618 5614 5611 5608 5607 5605 5603 5602 5601 5600 5598 5597 5595 5593 5591 5589 5587 5585 5584 5581 5578 5576 5574 5572 5570
5657 5656 5654 5652 5650 5649 5647 5643 5641 5639 5638 5636 5634 5632 5629 5626 5622 5618 5615 5611 5608 5605 5603 5602 5600 5599 5598 5597 5595 5593 5590 5588 5586 5584 5582 5580 5578 5575 5573 5570 5569 5567 5564
5654 5652 5650 5649 5648 5646 5643 5640 5638 5638 5636 5634 5632 5629 5627 5624 5621 5616 5613 5609 5605 5602 5600 5598 5597 5597 5595 5593 5592 5590 5586 5584 5581 5579 5577 5574 5572 5570 5567 5565 5563 5561 5558
5650 5649 5647 5645 5645 5643 5640 5637 5637 5635 5633 5631 5628 5626 5624 5620 5617 5613 5610 5606 5602 5599 5598 5596 5594 5593 5592 5590 5588 5586 5583 5580 5577 5575 5572 5569 5567 5564 5562 5560 5558 5555 5553
5646 5645 5643 5641 5640 5640 5638 5635 5634 5632 5629 5626 5624 5622 5619 5616 5613 5610 5607 5603 5600 5598 5596 5593 5591 5589 5588 5586 5585 5582 5580 5577 5574 5571 5568 5565 5562 5560 5557 5555 5553 5551 5548
5642 5641 5639 5637 5637 5636 5634 5633 5631 5628 5625 5623 5621 5619 5616 5613 5610 5607 5604 5601 5599 5596 5593 5591 5588 5586 5585 5584 5581 5578 5576 5573 5570 5566 5563 5560 5557 5555 5552 5550 5548 5546 5544
5638 5637 5635 5634 5633 5632 5630 5629 5627 5624 5622 5620 5618 5615 5613 5610 5607 5604 5602 5600 5597 5594 5591 5588 5585 5583 5581 5579 5577 5574 5571 5568 5565 5561 5558 5555 5552 5549 5547 5544 5543 5541 5539